Location: Bielsko Biala
(49.8231°N, 19.0481°E)
Time: 23:41:26
(UTC+01:00)

ISS - Visible Passes

Search period start: 21 January 2018 00:00
Search period end: 31 January 2018 00:00
Orbit: 402 x 407 km, 51.6° (Epoch: 22 January)

Date Brightness Start Highest point End Pass type
(mag) Time Alt. Az. Time Alt. Az. Time Alt. Az.
25 Jan -1.3 18:13:14 10° SSE 18:13:37 11° SSE 18:13:37 11° SSE visible
26 Jan -1.5 18:55:15 10° SW 18:56:24 19° SSW 18:56:24 19° SSW visible
27 Jan -2.4 18:03:25 10° SSW 18:06:04 23° SE 18:06:25 22° SE visible
27 Jan -0.4 19:38:58 10° WSW 19:39:05 11° WSW 19:39:05 11° WSW visible
28 Jan -1.6 17:12:03 10° S 17:13:55 14° SE 17:15:47 10° ESE visible
28 Jan -2.8 18:46:39 10° WSW 18:49:02 42° SW 18:49:02 42° SW visible
29 Jan -3.2 17:54:29 10° SW 17:57:35 41° SSE 17:58:54 26° E visible
29 Jan -0.8 19:30:43 10° W 19:31:34 17° W 19:31:34 17° W visible
30 Jan -2.4 17:02:31 10° SSW 17:05:19 27° SE 17:08:08 10° E visible
30 Jan -3.8 18:38:16 10° WSW 18:41:23 78° W 18:41:23 78° W visible
